Hattiesburg, MS

11:07 PM CST on December 02, 2016 (GMT -0600)
Chain Municipal

Weather History for KHBG - January, 2005

Change the Weather History Date:

Sunday, January 16, 2005

  Actual Average Record
Temperature  
Mean Temperature 44 °F 48 °F  
Max Temperature 55 °F 60 °F 80 °F (1952)
Min Temperature 32 °F 37 °F 21 °F (1972)
Degree Days  
Heating Degree Days 20 17  
Month to date heating degree days 265  
Since 1 July heating degree days 1050  
Cooling Degree Days 0 0  
Month to date cooling degree days 0  
Year to date cooling degree days 0  
Moisture  
Dew Point 30 °F    
Average Humidity 64    
Maximum Humidity 89    
Minimum Humidity 38    
Precipitation  
Precipitation 0.00 in 0.16 in 2.50 in (1955)
Month to date precipitation 2.83  
Year to date precipitation 2.83  
Sea Level Pressure  
Sea Level Pressure 30.50 in    
Wind  
Wind Speed 8 mph (NNW)    
Max Wind Speed 14 mph    
Max Gust Speed 18 mph    
Visibility 10 miles    
Events      
T = Trace of Precipitation, MM = Missing Value Source: NWS Daily Summary

Daily Weather History Graph

Daily Weather History Graph

Search for Another Location

Airport or City:

Trip Planner

Search our weather history database for the weather conditions in past years. The results will help you decide how hot, cold, wet, or windy it might be!

Date:

Astronomy

Jan. 16, 2005 Rise Set
Actual Time 6:56 AM CST 5:18 PM CST
Civil Twilight 6:29 AM CST 5:44 PM CST
Nautical Twilight 6:00 AM CST 6:13 PM CST
Astronomical Twilight 5:31 AM CST 6:43 PM CST
Moon 11:10 AM CST (1/16) No Moon Set
Length of Visible Light 11h 14m
Length of Day
10h 21m
Waxing Crescent, 44% of the Moon is Illuminated
Jan 16
Waxing Crescent
Jan 17
First Quarter
Jan 25
Full
Feb 2
Last Quarter
Feb 8
New

Hourly Weather History & Observations

Time (CST) Temp. Windchill Dew Point Humidity Pressure Visibility Wind Dir Wind Speed Gust Speed Precip Events Conditions
12:53 AM 39.0 °F 34.8 °F 33.1 °F 79% 30.46 in 10.0 mi NW 5.8 mph - N/A   Clear
1:53 AM 37.9 °F 33.5 °F 32.0 °F 79% 30.45 in 10.0 mi NW 5.8 mph - N/A   Clear
2:53 AM 37.0 °F 31.6 °F 32.0 °F 82% 30.45 in 10.0 mi NNW 6.9 mph - N/A   Clear
3:53 AM 36.0 °F 32.1 °F 32.0 °F 86% 30.45 in 10.0 mi NW 4.6 mph - N/A   Clear
4:53 AM 35.1 °F 30.1 °F 32.0 °F 89% 30.46 in 9.0 mi NW 5.8 mph - N/A   Clear
6:53 AM 34.0 °F 28.0 °F 30.9 °F 89% 30.50 in 8.0 mi NNW 6.9 mph - N/A   Clear
7:53 AM 36.0 °F 31.1 °F 32.0 °F 86% 30.51 in 8.0 mi NNW 5.8 mph - N/A   Clear
8:53 AM 39.9 °F 36.7 °F 33.1 °F 77% 30.51 in 9.0 mi North 4.6 mph - N/A   Clear
9:53 AM 46.0 °F 43.1 °F 35.1 °F 66% 30.52 in 10.0 mi Variable 5.8 mph - N/A   Clear
10:53 AM 52.0 °F - 34.0 °F 50% 30.50 in 10.0 mi North 5.8 mph - N/A   Clear
11:53 AM 54.0 °F - 32.0 °F 43% 30.48 in 10.0 mi NNW 12.7 mph - N/A   Clear
12:53 PM 55.0 °F - 30.9 °F 40% 30.46 in 10.0 mi North 13.8 mph - N/A   Clear
1:53 PM 55.9 °F - 30.9 °F 39% 30.45 in 10.0 mi North 10.4 mph - N/A   Clear
2:53 PM 55.0 °F - 30.0 °F 38% 30.44 in 10.0 mi NW 10.4 mph - N/A   Clear
3:53 PM 53.1 °F - 28.9 °F 40% 30.45 in 10.0 mi NNW 12.7 mph - N/A   Clear
4:53 PM 50.0 °F - 28.9 °F 44% 30.47 in 10.0 mi NW 11.5 mph - N/A   Clear
5:53 PM 46.9 °F - 28.9 °F 50% 30.49 in 10.0 mi NNW 10.4 mph - N/A   Clear
6:53 PM 45.0 °F 38.9 °F 28.9 °F 53% 30.52 in 10.0 mi NNW 12.7 mph 18.4 mph N/A   Clear
7:53 PM 41.0 °F 33.9 °F 28.9 °F 62% 30.54 in 10.0 mi NNW 12.7 mph - N/A   Clear
8:53 PM 37.9 °F 30.5 °F 28.0 °F 68% 30.56 in 10.0 mi NNW 11.5 mph - N/A   Clear
9:53 PM 36.0 °F 27.5 °F 27.0 °F 70% 30.58 in 10.0 mi North 12.7 mph - N/A   Clear
10:53 PM 34.0 °F 26.6 °F 26.1 °F 73% 30.58 in 10.0 mi NNW 9.2 mph - N/A   Clear
11:53 PM 32.0 °F 23.6 °F 25.0 °F 75% 30.58 in 10.0 mi NNW 10.4 mph - N/A   Clear